Time,TemperatureF,DewpointF,PressureIn,WindDirection,WindDirectionDegrees,WindSpeedMPH,WindSpeedGustMPH,Humidity,HourlyPrecipIn,Conditions,Clouds,dailyrainin,SoftwareType,DateUTC
2013-05-24 00:04:00,45.3,27.9,30.36,North,-999,0.0,0.0,50,0.00,,,-99.99,FreeWX 2.04,2013-05-24 05:04:00,
2013-05-24 00:09:00,45.0,27.5,30.36,North,-999,0.0,0.0,50,0.00,,,-99.99,FreeWX 2.04,2013-05-24 05:09:00,
2013-05-24 00:14:00,44.6,27.7,30.36,North,-999,0.0,0.0,51,0.00,,,-99.99,FreeWX 2.04,2013-05-24 05:14:00,
2013-05-24 00:19:00,44.4,27.5,30.36,North,-999,0.0,0.0,51,0.00,,,-99.99,FreeWX 2.04,2013-05-24 05:19:00,
2013-05-24 00:24:00,44.1,27.1,30.36,North,-999,0.0,0.0,51,0.00,,,-99.99,FreeWX 2.04,2013-05-24 05:24:00,
2013-05-24 00:29:00,43.7,27.3,30.36,North,-999,0.0,0.0,52,0.00,,,-99.99,FreeWX 2.04,2013-05-24 05:29:00,
2013-05-24 00:34:00,43.7,27.7,30.36,North,-999,0.0,0.0,53,0.00,,,-99.99,FreeWX 2.04,2013-05-24 05:34:00,
2013-05-24 00:39:00,43.5,27.5,30.36,North,-999,0.0,0.0,53,0.00,,,-99.99,FreeWX 2.04,2013-05-24 05:39:00,
2013-05-24 00:44:00,43.5,27.5,30.36,North,-999,0.0,0.0,53,0.00,,,-99.99,FreeWX 2.04,2013-05-24 05:44:00,
2013-05-24 00:49:00,43.5,27.5,30.36,North,-999,0.0,0.0,53,0.00,,,-99.99,FreeWX 2.04,2013-05-24 05:49:00,
2013-05-24 00:54:00,43.3,27.3,30.36,North,-999,0.0,0.0,53,0.00,,,-99.99,FreeWX 2.04,2013-05-24 05:54:00,
2013-05-24 00:59:00,43.0,27.0,30.36,North,-999,0.0,0.0,53,0.00,,,-99.99,FreeWX 2.04,2013-05-24 05:59:00,
2013-05-24 01:04:00,42.6,27.1,30.36,North,-999,0.0,4.0,54,0.00,,,-99.99,FreeWX 2.04,2013-05-24 06:04:00,
2013-05-24 01:09:00,42.4,27.5,30.36,North,-999,0.0,0.0,55,0.00,,,-99.99,FreeWX 2.04,2013-05-24 06:09:00,
2013-05-24 01:14:00,42.3,27.7,30.36,North,-999,0.0,4.0,56,0.00,,,-99.99,FreeWX 2.04,2013-05-24 06:14:00,
2013-05-24 01:19:00,42.3,27.7,30.36,North,-999,0.0,4.0,56,0.00,,,-99.99,FreeWX 2.04,2013-05-24 06:19:00,
2013-05-24 01:24:00,42.1,28.0,30.36,North,-999,0.0,3.1,57,0.00,,,-99.99,FreeWX 2.04,2013-05-24 06:24:00,
2013-05-24 01:29:00,42.1,27.5,30.36,North,-999,0.0,4.0,56,0.00,,,-99.99,FreeWX 2.04,2013-05-24 06:29:00,
2013-05-24 01:34:00,42.3,27.3,30.36,North,-999,0.0,4.0,55,0.00,,,-99.99,FreeWX 2.04,2013-05-24 06:34:00,
2013-05-24 01:39:00,42.4,26.6,30.36,North,-999,0.0,3.1,53,0.00,,,-99.99,FreeWX 2.04,2013-05-24 06:39:00,
2013-05-24 01:44:00,42.4,26.6,30.36,North,-999,0.0,4.0,53,0.00,,,-99.99,FreeWX 2.04,2013-05-24 06:44:00,
2013-05-24 01:49:00,42.4,26.6,30.36,North,-999,0.0,2.7,53,0.00,,,-99.99,FreeWX 2.04,2013-05-24 06:49:00,
2013-05-24 01:54:00,42.4,26.6,30.36,North,-999,0.0,0.0,53,0.00,,,-99.99,FreeWX 2.04,2013-05-24 06:54:00,
2013-05-24 01:59:00,42.6,26.8,30.36,North,-999,0.0,0.0,53,0.00,,,-99.99,FreeWX 2.04,2013-05-24 06:59:00,
2013-05-24 02:04:00,42.6,26.2,30.36,North,-999,0.0,0.0,52,0.00,,,-99.99,FreeWX 2.04,2013-05-24 07:04:00,
2013-05-24 02:09:00,42.6,26.2,30.36,North,-999,0.0,0.0,52,0.00,,,-99.99,FreeWX 2.04,2013-05-24 07:09:00,
2013-05-24 02:14:00,42.4,26.6,30.36,North,-999,0.0,0.0,53,0.00,,,-99.99,FreeWX 2.04,2013-05-24 07:14:00,
2013-05-24 02:19:00,42.1,26.6,30.36,North,-999,0.0,0.0,54,0.00,,,-99.99,FreeWX 2.04,2013-05-24 07:19:00,
2013-05-24 02:24:00,42.1,26.2,30.36,North,-999,0.0,0.0,53,0.00,,,-99.99,FreeWX 2.04,2013-05-24 07:24:00,
2013-05-24 02:29:00,42.1,26.2,30.36,North,-999,0.0,0.0,53,0.00,,,-99.99,FreeWX 2.04,2013-05-24 07:29:00,
2013-05-24 02:34:00,42.1,25.7,30.36,North,-999,0.0,0.0,52,0.00,,,-99.99,FreeWX 2.04,2013-05-24 07:34:00,
2013-05-24 02:39:00,41.9,26.1,30.36,North,-999,0.0,0.0,53,0.00,,,-99.99,FreeWX 2.04,2013-05-24 07:39:00,
2013-05-24 02:44:00,41.9,26.1,30.36,North,-999,0.0,0.0,53,0.00,,,-99.99,FreeWX 2.04,2013-05-24 07:44:00,
2013-05-24 02:49:00,41.9,26.4,30.36,North,-999,0.0,0.0,54,0.00,,,-99.99,FreeWX 2.04,2013-05-24 07:49:00,
2013-05-24 02:54:00,41.9,26.1,30.36,North,-999,0.0,0.0,53,0.00,,,-99.99,FreeWX 2.04,2013-05-24 07:54:00,
2013-05-24 03:00:00,41.9,26.1,30.36,North,-999,0.0,4.5,53,0.00,,,-99.99,FreeWX 2.04,2013-05-24 08:00:00,
2013-05-24 03:05:00,41.7,26.8,30.36,North,-999,0.0,0.0,55,0.00,,,-99.99,FreeWX 2.04,2013-05-24 08:05:00,
2013-05-24 03:10:00,41.5,26.6,30.36,North,-999,0.0,0.0,55,0.00,,,-99.99,FreeWX 2.04,2013-05-24 08:10:00,
2013-05-24 03:15:00,41.4,26.8,30.36,North,-999,0.0,0.0,56,0.00,,,-99.99,FreeWX 2.04,2013-05-24 08:15:00,
2013-05-24 03:20:00,41.5,27.5,30.36,North,-999,0.0,0.0,57,0.00,,,-99.99,FreeWX 2.04,2013-05-24 08:20:00,
2013-05-24 03:25:00,41.5,27.5,30.36,North,-999,0.0,0.0,57,0.00,,,-99.99,FreeWX 2.04,2013-05-24 08:25:00,
2013-05-24 03:30:00,41.5,29.1,30.36,North,-999,0.0,0.0,61,0.00,,,-99.99,FreeWX 2.04,2013-05-24 08:30:00,
2013-05-24 03:35:00,41.5,29.1,30.36,North,-999,0.0,0.0,61,0.00,,,-99.99,FreeWX 2.04,2013-05-24 08:35:00,
2013-05-24 03:40:00,41.4,29.3,30.36,North,-999,0.0,0.0,62,0.00,,,-99.99,FreeWX 2.04,2013-05-24 08:40:00,
2013-05-24 03:45:00,41.0,28.9,30.36,North,-999,0.0,0.0,62,0.00,,,-99.99,FreeWX 2.04,2013-05-24 08:45:00,
2013-05-24 03:50:00,40.5,28.0,30.36,North,-999,0.0,0.0,61,0.00,,,-99.99,FreeWX 2.04,2013-05-24 08:50:00,
2013-05-24 03:55:00,40.3,28.4,30.36,North,-999,0.0,0.0,62,0.00,,,-99.99,FreeWX 2.04,2013-05-24 08:55:00,
2013-05-24 04:00:00,40.1,28.2,30.36,North,-999,0.0,0.0,62,0.00,,,-99.99,FreeWX 2.04,2013-05-24 09:00:00,
2013-05-24 04:05:00,39.9,28.8,30.33,North,-999,0.0,0.0,64,0.00,,,-99.99,FreeWX 2.04,2013-05-24 09:05:00,
2013-05-24 04:10:00,39.7,28.9,30.33,North,-999,0.0,0.0,65,0.00,,,-99.99,FreeWX 2.04,2013-05-24 09:10:00,
2013-05-24 04:15:00,39.4,28.2,30.33,North,-999,0.0,0.0,64,0.00,,,-99.99,FreeWX 2.04,2013-05-24 09:15:00,
2013-05-24 04:20:00,39.2,28.0,30.33,North,-999,0.0,0.0,64,0.00,,,-99.99,FreeWX 2.04,2013-05-24 09:20:00,
2013-05-24 04:25:00,39.2,27.7,30.33,North,-999,0.0,0.0,63,0.00,,,-99.99,FreeWX 2.04,2013-05-24 09:25:00,
2013-05-24 04:30:00,39.2,27.7,30.33,North,-999,0.0,0.0,63,0.00,,,-99.99,FreeWX 2.04,2013-05-24 09:30:00,
2013-05-24 04:35:00,39.4,28.2,30.36,North,-999,0.0,0.0,64,0.00,,,-99.99,FreeWX 2.04,2013-05-24 09:35:00,
2013-05-24 04:40:00,39.7,28.9,30.36,North,-999,0.0,0.0,65,0.00,,,-99.99,FreeWX 2.04,2013-05-24 09:40:00,
2013-05-24 04:45:00,39.9,29.1,30.36,North,-999,0.0,0.0,65,0.00,,,-99.99,FreeWX 2.04,2013-05-24 09:45:00,
2013-05-24 04:50:00,39.9,29.1,30.36,North,-999,0.0,0.0,65,0.00,,,-99.99,FreeWX 2.04,2013-05-24 09:50:00,
2013-05-24 04:55:00,40.1,29.3,30.36,North,-999,0.0,0.0,65,0.00,,,-99.99,FreeWX 2.04,2013-05-24 09:55:00,
2013-05-24 05:00:00,40.1,29.3,30.36,North,-999,0.0,0.0,65,0.00,,,-99.99,FreeWX 2.04,2013-05-24 10:00:00,
2013-05-24 05:05:00,40.1,29.3,30.36,North,-999,0.0,0.0,65,0.00,,,-99.99,FreeWX 2.04,2013-05-24 10:05:00,
2013-05-24 05:10:00,39.9,29.5,30.36,North,-999,0.0,0.0,66,0.00,,,-99.99,FreeWX 2.04,2013-05-24 10:10:00,
2013-05-24 05:15:00,39.2,28.0,30.36,North,-999,0.0,0.0,64,0.00,,,-99.99,FreeWX 2.04,2013-05-24 10:15:00,
2013-05-24 05:20:00,38.7,27.5,30.36,North,-999,0.0,0.0,64,0.00,,,-99.99,FreeWX 2.04,2013-05-24 10:20:00,
2013-05-24 05:25:00,38.5,27.7,30.36,North,-999,0.0,0.0,65,0.00,,,-99.99,FreeWX 2.04,2013-05-24 10:25:00,
2013-05-24 05:30:00,38.1,27.5,30.36,North,-999,0.0,0.0,65,0.00,,,-99.99,FreeWX 2.04,2013-05-24 10:30:00,
2013-05-24 05:35:00,37.8,27.1,30.36,North,-999,0.0,0.0,65,0.00,,,-99.99,FreeWX 2.04,2013-05-24 10:35:00,
2013-05-24 05:40:00,37.9,27.7,30.36,North,-999,0.0,0.0,66,0.00,,,-99.99,FreeWX 2.04,2013-05-24 10:40:00,
2013-05-24 05:45:00,38.1,28.2,30.36,North,-999,0.0,0.0,67,0.00,,,-99.99,FreeWX 2.04,2013-05-24 10:45:00,
2013-05-24 05:50:00,38.3,28.4,30.36,North,-999,0.0,0.0,67,0.00,,,-99.99,FreeWX 2.04,2013-05-24 10:50:00,
2013-05-24 05:55:00,38.5,29.1,30.36,North,-999,0.0,0.0,69,0.00,,,-99.99,FreeWX 2.04,2013-05-24 10:55:00,
2013-05-24 06:00:00,38.5,28.9,30.36,North,-999,0.0,0.0,68,0.00,,,-99.99,FreeWX 2.04,2013-05-24 11:00:00,
2013-05-24 06:05:00,38.5,29.1,30.36,North,-999,0.0,0.0,69,0.00,,,-99.99,FreeWX 2.04,2013-05-24 11:05:00,
2013-05-24 06:10:00,38.5,29.1,30.36,North,-999,0.0,0.0,69,0.00,,,-99.99,FreeWX 2.04,2013-05-24 11:10:00,
2013-05-24 06:15:00,38.5,29.1,30.36,North,-999,0.0,0.0,69,0.00,,,-99.99,FreeWX 2.04,2013-05-24 11:15:00,
2013-05-24 06:20:00,38.7,29.3,30.36,North,-999,0.0,0.0,69,0.00,,,-99.99,FreeWX 2.04,2013-05-24 11:20:00,
2013-05-24 06:25:00,39.0,30.0,30.36,North,-999,0.0,0.0,70,0.00,,,-99.99,FreeWX 2.04,2013-05-24 11:25:00,
2013-05-24 06:30:00,39.4,30.4,30.36,North,-999,0.0,0.0,70,0.00,,,-99.99,FreeWX 2.04,2013-05-24 11:30:00,
2013-05-24 06:35:00,39.7,31.1,30.36,North,-999,0.0,0.0,71,0.00,,,-99.99,FreeWX 2.04,2013-05-24 11:35:00,
2013-05-24 06:40:00,40.3,31.6,30.36,North,-999,0.0,0.0,71,0.00,,,-99.99,FreeWX 2.04,2013-05-24 11:40:00,
2013-05-24 06:45:00,41.0,32.4,30.36,North,-999,0.0,0.0,71,0.00,,,-99.99,FreeWX 2.04,2013-05-24 11:45:00,
2013-05-24 06:50:00,41.5,32.9,30.36,North,-999,0.0,0.0,71,0.00,,,-99.99,FreeWX 2.04,2013-05-24 11:50:00,
2013-05-24 06:55:00,41.9,33.3,30.36,North,-999,0.0,0.0,71,0.00,,,-99.99,FreeWX 2.04,2013-05-24 11:55:00,
2013-05-24 07:00:00,42.6,33.8,30.36,North,-999,0.0,0.0,71,0.00,,,-99.99,FreeWX 2.04,2013-05-24 12:00:00,
2013-05-24 07:05:00,43.7,34.9,30.36,North,-999,0.0,0.0,71,0.00,,,-99.99,FreeWX 2.04,2013-05-24 12:05:00,
2013-05-24 07:10:00,45.1,36.0,30.36,North,-999,0.0,0.0,70,0.00,,,-99.99,FreeWX 2.04,2013-05-24 12:10:00,
2013-05-24 07:15:00,46.6,36.1,30.36,North,-999,0.0,0.0,67,0.00,,,-99.99,FreeWX 2.04,2013-05-24 12:15:00,
2013-05-24 07:20:00,47.7,36.1,30.36,North,-999,0.0,0.0,64,0.00,,,-99.99,FreeWX 2.04,2013-05-24 12:20:00,
2013-05-24 07:25:00,48.7,35.1,30.36,North,-999,0.0,0.0,59,0.00,,,-99.99,FreeWX 2.04,2013-05-24 12:25:00,
2013-05-24 07:30:00,49.8,33.8,30.36,North,-999,0.0,0.0,54,0.00,,,-99.99,FreeWX 2.04,2013-05-24 12:30:00,
2013-05-24 07:35:00,50.7,34.2,30.36,North,-999,0.0,0.0,53,0.00,,,-99.99,FreeWX 2.04,2013-05-24 12:35:00,
2013-05-24 07:40:00,51.6,33.6,30.36,North,-999,0.0,0.0,50,0.00,,,-99.99,FreeWX 2.04,2013-05-24 12:40:00,
2013-05-24 07:45:00,52.3,33.8,30.36,North,-999,0.0,0.0,49,0.00,,,-99.99,FreeWX 2.04,2013-05-24 12:45:00,
2013-05-24 07:50:00,53.1,34.0,30.36,North,-999,0.0,0.0,48,0.00,,,-99.99,FreeWX 2.04,2013-05-24 12:50:00,
2013-05-24 07:55:00,54.0,34.2,30.36,North,-999,0.0,0.0,47,0.00,,,-99.99,FreeWX 2.04,2013-05-24 12:55:00,
2013-05-24 08:00:00,55.2,34.3,30.36,North,-999,0.0,0.0,45,0.00,,,-99.99,FreeWX 2.04,2013-05-24 13:00:00,
2013-05-24 08:05:00,56.1,34.5,30.36,North,-999,0.0,0.0,44,0.00,,,-99.99,FreeWX 2.04,2013-05-24 13:05:00,
2013-05-24 08:10:00,56.7,33.8,30.36,North,-999,0.0,0.0,42,0.00,,,-99.99,FreeWX 2.04,2013-05-24 13:10:00,
2013-05-24 08:15:00,56.7,33.3,30.36,North,-999,0.0,0.0,41,0.00,,,-99.99,FreeWX 2.04,2013-05-24 13:15:00,
2013-05-24 08:20:00,56.5,33.1,30.39,North,-999,0.0,0.0,41,0.00,,,-99.99,FreeWX 2.04,2013-05-24 13:20:00,
2013-05-24 08:25:00,56.7,33.3,30.39,North,-999,0.0,0.0,41,0.00,,,-99.99,FreeWX 2.04,2013-05-24 13:25:00,
2013-05-24 08:30:00,56.8,33.4,30.39,North,-999,0.0,0.0,41,0.00,,,-99.99,FreeWX 2.04,2013-05-24 13:30:00,
2013-05-24 08:35:00,57.0,32.9,30.39,North,-999,0.0,0.0,40,0.00,,,-99.99,FreeWX 2.04,2013-05-24 13:35:00,
2013-05-24 08:40:00,56.8,32.7,30.39,North,-999,0.0,0.0,40,0.00,,,-99.99,FreeWX 2.04,2013-05-24 13:40:00,
2013-05-24 08:45:00,56.5,32.5,30.39,North,-999,0.0,0.0,40,0.00,,,-99.99,FreeWX 2.04,2013-05-24 13:45:00,
2013-05-24 08:50:00,56.7,32.5,30.36,North,-999,0.0,0.0,40,0.00,,,-99.99,FreeWX 2.04,2013-05-24 13:50:00,
2013-05-24 08:55:00,57.0,32.4,30.36,North,-999,0.0,0.0,39,0.00,,,-99.99,FreeWX 2.04,2013-05-24 13:55:00,
2013-05-24 09:00:00,57.4,32.7,30.36,North,-999,0.0,0.0,39,0.00,,,-99.99,FreeWX 2.04,2013-05-24 14:00:00,
2013-05-24 09:05:00,57.9,33.1,30.36,North,-999,0.0,0.0,39,0.00,,,-99.99,FreeWX 2.04,2013-05-24 14:05:00,
2013-05-24 09:10:00,58.1,32.5,30.36,North,-999,0.0,0.0,38,0.00,,,-99.99,FreeWX 2.04,2013-05-24 14:10:00,
2013-05-24 09:15:00,58.3,32.7,30.36,North,-999,0.0,5.4,38,0.00,,,-99.99,FreeWX 2.04,2013-05-24 14:15:00,
2013-05-24 09:20:00,58.5,32.4,30.36,NNE,21,2.0,5.4,37,0.00,,,-99.99,FreeWX 2.04,2013-05-24 14:20:00,
2013-05-24 09:25:00,58.3,32.2,30.36,ENE,63,3.0,4.5,37,0.00,,,-99.99,FreeWX 2.04,2013-05-24 14:25:00,
2013-05-24 09:30:00,58.5,32.4,30.36,East,81,4.0,6.3,37,0.00,,,-99.99,FreeWX 2.04,2013-05-24 14:30:00,
2013-05-24 09:35:00,58.6,32.4,30.36,East,97,4.0,5.4,37,0.00,,,-99.99,FreeWX 2.04,2013-05-24 14:35:00,
2013-05-24 09:40:00,59.4,33.1,30.36,East,101,3.0,4.5,37,0.00,,,-99.99,FreeWX 2.04,2013-05-24 14:40:00,
2013-05-24 09:45:00,59.9,33.6,30.36,East,101,2.0,4.5,37,0.00,,,-99.99,FreeWX 2.04,2013-05-24 14:45:00,
2013-05-24 09:50:00,60.6,33.4,30.36,ESE,102,1.0,4.5,36,0.00,,,-99.99,FreeWX 2.04,2013-05-24 14:50:00,
2013-05-24 09:55:00,61.3,34.2,30.36,North,-999,0.0,4.0,36,0.00,,,-99.99,FreeWX 2.04,2013-05-24 14:55:00,
2013-05-24 10:00:00,61.9,34.7,30.36,ESE,104,1.0,4.9,36,0.00,,,-99.99,FreeWX 2.04,2013-05-24 15:00:00,
2013-05-24 10:05:00,62.2,34.2,30.36,ESE,104,2.0,4.9,35,0.00,,,-99.99,FreeWX 2.04,2013-05-24 15:05:00,
2013-05-24 10:10:00,62.6,34.5,30.36,ESE,104,2.0,4.9,35,0.00,,,-99.99,FreeWX 2.04,2013-05-24 15:10:00,
2013-05-24 10:15:00,62.6,34.5,30.36,ESE,104,2.0,4.9,35,0.00,,,-99.99,FreeWX 2.04,2013-05-24 15:15:00,
2013-05-24 10:20:00,63.1,35.1,30.36,ESE,104,3.0,5.8,35,0.00,,,-99.99,FreeWX 2.04,2013-05-24 15:20:00,
2013-05-24 10:25:00,63.5,34.7,30.36,ESE,104,2.0,4.5,34,0.00,,,-99.99,FreeWX 2.04,2013-05-24 15:25:00,
2013-05-24 10:30:00,63.9,34.9,30.36,ESE,104,3.0,5.8,34,0.00,,,-99.99,FreeWX 2.04,2013-05-24 15:30:00,
2013-05-24 10:35:00,64.0,35.1,30.36,ESE,104,4.0,5.4,34,0.00,,,-99.99,FreeWX 2.04,2013-05-24 15:35:00,
2013-05-24 10:40:00,63.7,34.7,30.36,ESE,105,4.0,5.8,34,0.00,,,-99.99,FreeWX 2.04,2013-05-24 15:40:00,
2013-05-24 10:45:00,63.9,34.9,30.36,ESE,105,4.0,6.7,34,0.00,,,-99.99,FreeWX 2.04,2013-05-24 15:45:00,
2013-05-24 10:50:00,64.0,35.1,30.36,ESE,106,4.0,6.7,34,0.00,,,-99.99,FreeWX 2.04,2013-05-24 15:50:00,
2013-05-24 10:55:00,64.8,35.8,30.36,ESE,106,4.0,5.8,34,0.00,,,-99.99,FreeWX 2.04,2013-05-24 15:55:00,
2013-05-24 11:00:00,65.7,35.8,30.36,ESE,107,2.0,5.4,33,0.00,,,-99.99,FreeWX 2.04,2013-05-24 16:00:00,
2013-05-24 11:05:00,66.0,36.1,30.33,ESE,107,2.0,4.9,33,0.00,,,-99.99,FreeWX 2.04,2013-05-24 16:05:00,
2013-05-24 11:10:00,66.4,36.3,30.33,ESE,107,2.0,5.4,33,0.00,,,-99.99,FreeWX 2.04,2013-05-24 16:10:00,
2013-05-24 11:15:00,66.6,36.5,30.33,ESE,109,1.0,4.5,33,0.00,,,-99.99,FreeWX 2.04,2013-05-24 16:15:00,
2013-05-24 11:20:00,66.7,36.7,30.33,ESE,109,1.0,4.9,33,0.00,,,-99.99,FreeWX 2.04,2013-05-24 16:20:00,
2013-05-24 11:25:00,66.9,36.9,30.33,ESE,109,2.0,5.4,33,0.00,,,-99.99,FreeWX 2.04,2013-05-24 16:25:00,
2013-05-24 11:30:00,67.3,36.3,30.33,ESE,109,2.0,5.4,32,0.00,,,-99.99,FreeWX 2.04,2013-05-24 16:30:00,
2013-05-24 11:35:00,67.5,36.5,30.33,ESE,109,2.0,6.9,32,0.00,,,-99.99,FreeWX 2.04,2013-05-24 16:35:00,
2013-05-24 11:40:00,68.0,36.3,30.33,ESE,107,1.0,5.8,31,0.00,,,-99.99,FreeWX 2.04,2013-05-24 16:40:00,
2013-05-24 11:45:00,68.2,36.3,30.33,ESE,105,1.0,0.0,31,0.00,,,-99.99,FreeWX 2.04,2013-05-24 16:45:00,
2013-05-24 11:50:00,68.4,35.8,30.33,East,99,1.0,6.9,30,0.00,,,-99.99,FreeWX 2.04,2013-05-24 16:50:00,
2013-05-24 11:55:00,68.7,36.0,30.33,East,97,2.0,6.3,30,0.00,,,-99.99,FreeWX 2.04,2013-05-24 16:55:00,
2013-05-24 12:00:00,69.1,34.5,30.33,ENE,70,2.0,6.3,28,0.00,,,-99.99,FreeWX 2.04,2013-05-24 17:00:00,
2013-05-24 12:05:00,69.4,34.9,30.33,ENE,65,2.0,6.3,28,0.00,,,-99.99,FreeWX 2.04,2013-05-24 17:05:00,
2013-05-24 12:10:00,69.6,35.1,30.33,East,82,2.0,5.8,28,0.00,,,-99.99,FreeWX 2.04,2013-05-24 17:10:00,
2013-05-24 12:15:00,69.6,34.2,30.33,ENE,67,1.0,5.8,27,0.00,,,-99.99,FreeWX 2.04,2013-05-24 17:15:00,
2013-05-24 12:20:00,69.8,34.3,30.33,ENE,67,1.0,6.3,27,0.00,,,-99.99,FreeWX 2.04,2013-05-24 17:20:00,
2013-05-24 12:25:00,70.2,34.7,30.33,East,90,2.0,5.8,27,0.00,,,-99.99,FreeWX 2.04,2013-05-24 17:25:00,
2013-05-24 12:30:00,70.2,34.7,30.33,ESE,107,2.0,6.9,27,0.00,,,-99.99,FreeWX 2.04,2013-05-24 17:30:00,
2013-05-24 12:35:00,70.2,34.7,30.33,East,90,1.0,5.8,27,0.00,,,-99.99,FreeWX 2.04,2013-05-24 17:35:00,
2013-05-24 12:40:00,70.2,34.7,30.33,East,83,3.0,6.3,27,0.00,,,-99.99,FreeWX 2.04,2013-05-24 17:40:00,
2013-05-24 12:45:00,70.3,34.7,30.33,ESE,104,3.0,5.8,27,0.00,,,-99.99,FreeWX 2.04,2013-05-24 17:45:00,
2013-05-24 12:50:00,70.5,34.9,30.33,ESE,116,3.0,6.7,27,0.00,,,-99.99,FreeWX 2.04,2013-05-24 17:50:00,
2013-05-24 12:55:00,71.1,34.5,30.33,ESE,118,3.0,5.4,26,0.00,,,-99.99,FreeWX 2.04,2013-05-24 17:55:00,
2013-05-24 13:00:00,71.4,34.7,30.33,ESE,108,2.0,6.7,26,0.00,,,-99.99,FreeWX 2.04,2013-05-24 18:00:00,
2013-05-24 13:05:00,71.6,34.9,30.30,East,94,2.0,5.8,26,0.00,,,-99.99,FreeWX 2.04,2013-05-24 18:05:00,
2013-05-24 13:10:00,71.4,33.8,30.30,ENE,66,1.0,5.4,25,0.00,,,-99.99,FreeWX 2.04,2013-05-24 18:10:00,
2013-05-24 13:15:00,71.2,34.5,30.30,ENE,71,2.0,6.9,26,0.00,,,-99.99,FreeWX 2.04,2013-05-24 18:15:00,
2013-05-24 13:20:00,71.4,33.8,30.30,ENE,58,2.0,6.3,25,0.00,,,-99.99,FreeWX 2.04,2013-05-24 18:20:00,
2013-05-24 13:25:00,71.4,34.7,30.30,North,10,1.0,7.4,26,0.00,,,-99.99,FreeWX 2.04,2013-05-24 18:25:00,
2013-05-24 13:30:00,72.0,35.2,30.30,ENE,70,1.0,7.4,26,0.00,,,-99.99,FreeWX 2.04,2013-05-24 18:30:00,
2013-05-24 13:35:00,72.5,34.7,30.30,ESE,110,3.0,7.8,25,0.00,,,-99.99,FreeWX 2.04,2013-05-24 18:35:00,
2013-05-24 13:40:00,72.0,34.2,30.30,ESE,108,2.0,6.7,25,0.00,,,-99.99,FreeWX 2.04,2013-05-24 18:40:00,
2013-05-24 13:45:00,71.2,34.5,30.30,ESE,109,2.0,6.3,26,0.00,,,-99.99,FreeWX 2.04,2013-05-24 18:45:00,
2013-05-24 13:50:00,70.5,34.9,30.30,ESE,108,3.0,6.3,27,0.00,,,-99.99,FreeWX 2.04,2013-05-24 18:50:00,
2013-05-24 13:55:00,69.3,33.8,30.30,ESE,105,2.0,5.8,27,0.00,,,-99.99,FreeWX 2.04,2013-05-24 18:55:00,
2013-05-24 14:00:00,68.5,34.2,30.30,East,98,1.0,4.9,28,0.00,,,-99.99,FreeWX 2.04,2013-05-24 19:00:00,
2013-05-24 14:05:00,68.5,34.2,30.27,East,94,2.0,4.0,28,0.00,,,-99.99,FreeWX 2.04,2013-05-24 19:05:00,
2013-05-24 14:10:00,69.1,33.6,30.27,East,86,2.0,7.8,27,0.00,,,-99.99,FreeWX 2.04,2013-05-24 19:10:00,
2013-05-24 14:15:00,69.8,34.3,30.27,ENE,73,3.0,6.7,27,0.00,,,-99.99,FreeWX 2.04,2013-05-24 19:15:00,
2013-05-24 14:20:00,70.3,33.8,30.27,ENE,76,3.0,6.7,26,0.00,,,-99.99,FreeWX 2.04,2013-05-24 19:20:00,
2013-05-24 14:25:00,70.9,34.3,30.27,East,93,3.0,8.3,26,0.00,,,-99.99,FreeWX 2.04,2013-05-24 19:25:00,
2013-05-24 14:30:00,71.6,34.9,30.27,East,91,3.0,6.3,26,0.00,,,-99.99,FreeWX 2.04,2013-05-24 19:30:00,
2013-05-24 14:35:00,72.5,35.6,30.27,East,90,3.0,6.9,26,0.00,,,-99.99,FreeWX 2.04,2013-05-24 19:35:00,
2013-05-24 14:40:00,72.7,33.8,30.27,East,99,2.0,10.5,24,0.00,,,-99.99,FreeWX 2.04,2013-05-24 19:40:00,
2013-05-24 14:45:00,71.4,32.7,30.27,ENE,58,2.0,10.5,24,0.00,,,-99.99,FreeWX 2.04,2013-05-24 19:45:00,
2013-05-24 14:50:00,70.7,33.1,30.27,NNE,18,3.0,7.8,25,0.00,,,-99.99,FreeWX 2.04,2013-05-24 19:50:00,
2013-05-24 14:55:00,70.9,33.3,30.27,NNE,25,2.0,5.8,25,0.00,,,-99.99,FreeWX 2.04,2013-05-24 19:55:00,
2013-05-24 15:00:00,71.6,34.0,30.27,ENE,59,2.0,10.1,25,0.00,,,-99.99,FreeWX 2.04,2013-05-24 20:00:00,
2013-05-24 15:05:00,71.6,34.9,30.27,East,94,4.0,6.3,26,0.00,,,-99.99,FreeWX 2.04,2013-05-24 20:05:00,
2013-05-24 15:10:00,70.9,34.3,30.27,ESE,109,3.0,6.3,26,0.00,,,-99.99,FreeWX 2.04,2013-05-24 20:10:00,
2013-05-24 15:15:00,70.3,33.8,30.27,East,100,1.0,6.3,26,0.00,,,-99.99,FreeWX 2.04,2013-05-24 20:15:00,
2013-05-24 15:20:00,69.6,32.2,30.27,ENE,77,1.0,8.3,25,0.00,,,-99.99,FreeWX 2.04,2013-05-24 20:20:00,
2013-05-24 15:25:00,69.3,32.0,30.27,NE,44,2.0,7.8,25,0.00,,,-99.99,FreeWX 2.04,2013-05-24 20:25:00,
2013-05-24 15:30:00,69.1,31.8,30.27,ENE,57,2.0,7.8,25,0.00,,,-99.99,FreeWX 2.04,2013-05-24 20:30:00,
2013-05-24 15:35:00,69.3,32.0,30.27,ENE,68,2.0,6.9,25,0.00,,,-99.99,FreeWX 2.04,2013-05-24 20:35:00,
2013-05-24 15:40:00,70.0,33.4,30.27,ENE,69,1.0,5.8,26,0.00,,,-99.99,FreeWX 2.04,2013-05-24 20:40:00,
2013-05-24 15:45:00,70.2,32.7,30.27,East,86,2.0,8.3,25,0.00,,,-99.99,FreeWX 2.04,2013-05-24 20:45:00,
2013-05-24 15:50:00,70.2,33.6,30.27,ENE,61,3.0,7.4,26,0.00,,,-99.99,FreeWX 2.04,2013-05-24 20:50:00,
2013-05-24 15:55:00,70.5,34.0,30.27,ENE,63,3.0,5.8,26,0.00,,,-99.99,FreeWX 2.04,2013-05-24 20:55:00,
2013-05-24 16:00:00,70.5,34.0,30.27,East,94,2.0,5.8,26,0.00,,,-99.99,FreeWX 2.04,2013-05-24 21:00:00,
2013-05-24 16:05:00,70.3,33.8,30.27,ESE,104,2.0,5.4,26,0.00,,,-99.99,FreeWX 2.04,2013-05-24 21:05:00,
2013-05-24 16:10:00,70.5,34.0,30.27,ESE,109,2.0,7.4,26,0.00,,,-99.99,FreeWX 2.04,2013-05-24 21:10:00,
2013-05-24 16:15:00,70.7,33.1,30.27,ESE,111,3.0,6.3,25,0.00,,,-99.99,FreeWX 2.04,2013-05-24 21:15:00,
2013-05-24 16:20:00,70.5,33.1,30.27,ESE,105,2.0,5.8,25,0.00,,,-99.99,FreeWX 2.04,2013-05-24 21:20:00,
2013-05-24 16:25:00,70.9,33.3,30.27,East,97,3.0,7.8,25,0.00,,,-99.99,FreeWX 2.04,2013-05-24 21:25:00,
2013-05-24 16:30:00,71.1,34.5,30.27,East,101,4.0,7.4,26,0.00,,,-99.99,FreeWX 2.04,2013-05-24 21:30:00,
2013-05-24 16:35:00,70.3,33.8,30.27,ESE,110,3.0,6.3,26,0.00,,,-99.99,FreeWX 2.04,2013-05-24 21:35:00,
2013-05-24 16:40:00,69.8,33.4,30.27,ESE,110,2.0,4.9,26,0.00,,,-99.99,FreeWX 2.04,2013-05-24 21:40:00,
2013-05-24 16:45:00,69.4,34.0,30.27,ESE,103,1.0,6.9,27,0.00,,,-99.99,FreeWX 2.04,2013-05-24 21:45:00,
2013-05-24 16:50:00,68.9,33.6,30.27,East,90,1.0,5.4,27,0.00,,,-99.99,FreeWX 2.04,2013-05-24 21:50:00,
2013-05-24 16:55:00,68.5,33.3,30.27,East,86,2.0,4.9,27,0.00,,,-99.99,FreeWX 2.04,2013-05-24 21:55:00,
2013-05-24 17:00:00,68.4,33.1,30.27,East,91,1.0,5.4,27,0.00,,,-99.99,FreeWX 2.04,2013-05-24 22:00:00,
2013-05-24 17:05:00,68.4,32.2,30.27,ENE,68,1.0,7.4,26,0.00,,,-99.99,FreeWX 2.04,2013-05-24 22:05:00,
2013-05-24 17:10:00,68.4,33.1,30.27,NE,48,1.0,6.3,27,0.00,,,-99.99,FreeWX 2.04,2013-05-24 22:10:00,
2013-05-24 17:15:00,68.5,33.3,30.27,North,-999,0.0,3.6,27,0.00,,,-99.99,FreeWX 2.04,2013-05-24 22:15:00,
2013-05-24 17:20:00,68.2,32.9,30.27,ESE,106,1.0,5.4,27,0.00,,,-99.99,FreeWX 2.04,2013-05-24 22:20:00,
2013-05-24 17:25:00,67.8,32.5,30.27,ESE,108,1.0,6.3,27,0.00,,,-99.99,FreeWX 2.04,2013-05-24 22:25:00,
2013-05-24 17:30:00,67.6,32.5,30.27,North,-999,0.0,4.9,27,0.00,,,-99.99,FreeWX 2.04,2013-05-24 22:30:00,
2013-05-24 17:35:00,67.5,33.3,30.24,NE,50,1.0,4.5,28,0.00,,,-99.99,FreeWX 2.04,2013-05-24 22:35:00,
2013-05-24 17:40:00,66.9,33.6,30.24,ENE,68,1.0,5.8,29,0.00,,,-99.99,FreeWX 2.04,2013-05-24 22:40:00,
2013-05-24 17:45:00,66.7,33.4,30.24,ENE,75,1.0,4.9,29,0.00,,,-99.99,FreeWX 2.04,2013-05-24 22:45:00,
2013-05-24 17:50:00,66.6,33.3,30.24,North,-999,0.0,4.0,29,0.00,,,-99.99,FreeWX 2.04,2013-05-24 22:50:00,
2013-05-24 17:55:00,66.2,33.1,30.24,North,-999,0.0,2.7,29,0.00,,,-99.99,FreeWX 2.04,2013-05-24 22:55:00,
2013-05-24 18:00:00,65.8,32.7,30.24,North,-999,0.0,5.8,29,0.00,,,-99.99,FreeWX 2.04,2013-05-24 23:00:00,
2013-05-24 18:05:00,65.3,33.1,30.24,North,-999,0.0,0.0,30,0.00,,,-99.99,FreeWX 2.04,2013-05-24 23:05:00,
2013-05-24 18:10:00,64.9,33.6,30.24,North,-999,0.0,4.5,31,0.00,,,-99.99,FreeWX 2.04,2013-05-24 23:10:00,
2013-05-24 18:15:00,64.8,32.5,30.24,North,-999,0.0,4.5,30,0.00,,,-99.99,FreeWX 2.04,2013-05-24 23:15:00,
2013-05-24 18:20:00,64.4,33.1,30.27,North,-999,0.0,3.6,31,0.00,,,-99.99,FreeWX 2.04,2013-05-24 23:20:00,
2013-05-24 18:25:00,64.4,32.4,30.27,North,-999,0.0,3.6,30,0.00,,,-99.99,FreeWX 2.04,2013-05-24 23:25:00,
2013-05-24 18:30:00,64.0,32.7,30.27,North,-999,0.0,3.1,31,0.00,,,-99.99,FreeWX 2.04,2013-05-24 23:30:00,
2013-05-24 18:35:00,63.9,32.7,30.24,North,-999,0.0,4.5,31,0.00,,,-99.99,FreeWX 2.04,2013-05-24 23:35:00,
2013-05-24 18:40:00,63.3,32.9,30.24,ENE,78,1.0,5.8,32,0.00,,,-99.99,FreeWX 2.04,2013-05-24 23:40:00,
2013-05-24 18:45:00,63.0,33.4,30.24,North,-999,0.0,4.5,33,0.00,,,-99.99,FreeWX 2.04,2013-05-24 23:45:00,
2013-05-24 18:50:00,62.6,33.1,30.24,North,-999,0.0,4.5,33,0.00,,,-99.99,FreeWX 2.04,2013-05-24 23:50:00,
2013-05-24 18:55:00,62.4,32.9,30.24,North,-999,0.0,3.1,33,0.00,,,-99.99,FreeWX 2.04,2013-05-24 23:55:00,
2013-05-24 19:00:00,62.2,32.7,30.24,North,-999,0.0,3.6,33,0.00,,,-99.99,FreeWX 2.04,2013-05-25 00:00:00,
2013-05-24 19:05:00,62.1,33.4,30.24,North,-999,0.0,2.7,34,0.00,,,-99.99,FreeWX 2.04,2013-05-25 00:05:00,
2013-05-24 19:10:00,61.7,35.8,30.24,North,-999,0.0,0.0,38,0.00,,,-99.99,FreeWX 2.04,2013-05-25 00:10:00,
2013-05-24 19:15:00,61.3,36.1,30.24,North,-999,0.0,0.0,39,0.00,,,-99.99,FreeWX 2.04,2013-05-25 00:15:00,
2013-05-24 19:20:00,61.0,36.5,30.27,North,-999,0.0,0.0,40,0.00,,,-99.99,FreeWX 2.04,2013-05-25 00:20:00,
2013-05-24 19:25:00,60.8,37.0,30.27,North,-999,0.0,0.0,41,0.00,,,-99.99,FreeWX 2.04,2013-05-25 00:25:00,
2013-05-24 19:30:00,60.4,37.2,30.27,North,-999,0.0,0.0,42,0.00,,,-99.99,FreeWX 2.04,2013-05-25 00:30:00,
2013-05-24 19:35:00,60.3,36.5,30.27,North,-999,0.0,0.0,41,0.00,,,-99.99,FreeWX 2.04,2013-05-25 00:35:00,
2013-05-24 19:40:00,60.1,36.3,30.27,North,-999,0.0,0.0,41,0.00,,,-99.99,FreeWX 2.04,2013-05-25 00:40:00,
2013-05-24 19:45:00,60.1,35.6,30.27,North,-999,0.0,0.0,40,0.00,,,-99.99,FreeWX 2.04,2013-05-25 00:45:00,
2013-05-24 19:50:00,59.9,35.6,30.27,North,-999,0.0,0.0,40,0.00,,,-99.99,FreeWX 2.04,2013-05-25 00:50:00,
2013-05-24 19:55:00,59.7,36.5,30.27,North,-999,0.0,0.0,42,0.00,,,-99.99,FreeWX 2.04,2013-05-25 00:55:00,
2013-05-24 20:00:00,59.4,36.9,30.27,North,-999,0.0,0.0,43,0.00,,,-99.99,FreeWX 2.04,2013-05-25 01:00:00,
2013-05-24 20:05:00,59.4,37.4,30.27,North,-999,0.0,0.0,44,0.00,,,-99.99,FreeWX 2.04,2013-05-25 01:05:00,
2013-05-24 20:10:00,59.2,37.9,30.27,North,-999,0.0,0.0,45,0.00,,,-99.99,FreeWX 2.04,2013-05-25 01:10:00,
2013-05-24 20:15:00,59.0,38.8,30.27,North,-999,0.0,0.0,47,0.00,,,-99.99,FreeWX 2.04,2013-05-25 01:15:00,
2013-05-24 20:20:00,58.6,39.0,30.27,North,-999,0.0,0.0,48,0.00,,,-99.99,FreeWX 2.04,2013-05-25 01:20:00,
2013-05-24 20:25:00,58.5,39.4,30.27,North,-999,0.0,0.0,49,0.00,,,-99.99,FreeWX 2.04,2013-05-25 01:25:00,
2013-05-24 20:30:00,58.3,39.2,30.27,North,-999,0.0,0.0,49,0.00,,,-99.99,FreeWX 2.04,2013-05-25 01:30:00,
2013-05-24 20:35:00,58.3,39.2,30.27,North,-999,0.0,0.0,49,0.00,,,-99.99,FreeWX 2.04,2013-05-25 01:35:00,
2013-05-24 20:40:00,58.1,39.0,30.27,North,-999,0.0,0.0,49,0.00,,,-99.99,FreeWX 2.04,2013-05-25 01:40:00,
2013-05-24 20:45:00,58.1,38.5,30.27,North,-999,0.0,0.0,48,0.00,,,-99.99,FreeWX 2.04,2013-05-25 01:45:00,
2013-05-24 20:50:00,57.7,39.2,30.24,North,-999,0.0,0.0,50,0.00,,,-99.99,FreeWX 2.04,2013-05-25 01:50:00,
2013-05-24 20:55:00,57.6,39.0,30.24,North,-999,0.0,0.0,50,0.00,,,-99.99,FreeWX 2.04,2013-05-25 01:55:00,
2013-05-24 21:00:00,57.4,38.8,30.24,North,-999,0.0,0.0,50,0.00,,,-99.99,FreeWX 2.04,2013-05-25 02:00:00,
2013-05-24 21:05:00,57.2,39.2,30.24,North,-999,0.0,0.0,51,0.00,,,-99.99,FreeWX 2.04,2013-05-25 02:05:00,
2013-05-24 21:10:00,57.0,38.5,30.24,North,-999,0.0,0.0,50,0.00,,,-99.99,FreeWX 2.04,2013-05-25 02:10:00,
2013-05-24 21:15:00,56.8,38.8,30.24,North,-999,0.0,0.0,51,0.00,,,-99.99,FreeWX 2.04,2013-05-25 02:15:00,
2013-05-24 21:20:00,56.7,38.7,30.24,North,-999,0.0,0.0,51,0.00,,,-99.99,FreeWX 2.04,2013-05-25 02:20:00,
2013-05-24 21:25:00,56.5,39.0,30.24,North,-999,0.0,0.0,52,0.00,,,-99.99,FreeWX 2.04,2013-05-25 02:25:00,
2013-05-24 21:30:00,56.3,39.4,30.24,North,-999,0.0,0.0,53,0.00,,,-99.99,FreeWX 2.04,2013-05-25 02:30:00,
2013-05-24 21:35:00,55.9,39.9,30.27,North,-999,0.0,0.0,55,0.00,,,-99.99,FreeWX 2.04,2013-05-25 02:35:00,
2013-05-24 21:40:00,55.9,39.6,30.27,North,-999,0.0,0.0,54,0.00,,,-99.99,FreeWX 2.04,2013-05-25 02:40:00,
2013-05-24 21:45:00,55.9,39.6,30.27,North,-999,0.0,0.0,54,0.00,,,-99.99,FreeWX 2.04,2013-05-25 02:45:00,
2013-05-24 21:50:00,55.8,39.9,30.27,North,-999,0.0,0.0,55,0.00,,,-99.99,FreeWX 2.04,2013-05-25 02:50:00,
2013-05-24 21:55:00,55.8,39.4,30.27,North,-999,0.0,0.0,54,0.00,,,-99.99,FreeWX 2.04,2013-05-25 02:55:00,
2013-05-24 22:00:00,55.9,39.6,30.27,North,-999,0.0,0.0,54,0.00,,,-99.99,FreeWX 2.04,2013-05-25 03:00:00,
2013-05-24 22:05:00,55.9,39.6,30.27,North,-999,0.0,0.0,54,0.00,,,-99.99,FreeWX 2.04,2013-05-25 03:05:00,
2013-05-24 22:10:00,56.1,39.2,30.27,North,-999,0.0,0.0,53,0.00,,,-99.99,FreeWX 2.04,2013-05-25 03:10:00,
2013-05-24 22:15:00,56.1,39.2,30.27,North,-999,0.0,0.0,53,0.00,,,-99.99,FreeWX 2.04,2013-05-25 03:15:00,
2013-05-24 22:20:00,56.1,39.7,30.27,North,-999,0.0,0.0,54,0.00,,,-99.99,FreeWX 2.04,2013-05-25 03:20:00,
2013-05-24 22:25:00,56.1,39.7,30.27,North,-999,0.0,0.0,54,0.00,,,-99.99,FreeWX 2.04,2013-05-25 03:25:00,
2013-05-24 22:30:00,55.9,39.6,30.27,North,-999,0.0,0.0,54,0.00,,,-99.99,FreeWX 2.04,2013-05-25 03:30:00,
2013-05-24 22:35:00,55.9,39.0,30.27,North,-999,0.0,0.0,53,0.00,,,-99.99,FreeWX 2.04,2013-05-25 03:35:00,
2013-05-24 22:40:00,55.9,39.0,30.27,North,-999,0.0,0.0,53,0.00,,,-99.99,FreeWX 2.04,2013-05-25 03:40:00,
2013-05-24 22:45:00,55.8,38.8,30.27,North,-999,0.0,0.0,53,0.00,,,-99.99,FreeWX 2.04,2013-05-25 03:45:00,
2013-05-24 22:50:00,55.6,39.2,30.27,North,-999,0.0,0.0,54,0.00,,,-99.99,FreeWX 2.04,2013-05-25 03:50:00,
2013-05-24 22:55:00,55.6,39.2,30.27,North,-999,0.0,0.0,54,0.00,,,-99.99,FreeWX 2.04,2013-05-25 03:55:00,
2013-05-24 23:00:00,55.4,39.0,30.27,North,-999,0.0,0.0,54,0.00,,,-99.99,FreeWX 2.04,2013-05-25 04:00:00,
2013-05-24 23:05:00,55.6,39.2,30.27,North,-999,0.0,0.0,54,0.00,,,-99.99,FreeWX 2.04,2013-05-25 04:05:00,
2013-05-24 23:10:00,55.6,39.2,30.27,North,-999,0.0,4.0,54,0.00,,,-99.99,FreeWX 2.04,2013-05-25 04:10:00,
2013-05-24 23:15:00,55.6,38.7,30.27,NE,54,2.0,4.9,53,0.00,,,-99.99,FreeWX 2.04,2013-05-25 04:15:00,
2013-05-24 23:20:00,55.8,38.5,30.27,NE,55,4.0,5.4,52,0.00,,,-99.99,FreeWX 2.04,2013-05-25 04:20:00,
2013-05-24 23:25:00,55.8,38.5,30.27,ENE,59,3.0,4.9,52,0.00,,,-99.99,FreeWX 2.04,2013-05-25 04:25:00,
2013-05-24 23:30:00,55.6,38.3,30.27,ENE,63,3.0,5.4,52,0.00,,,-99.99,FreeWX 2.04,2013-05-25 04:30:00,
2013-05-24 23:35:00,55.4,38.5,30.27,ENE,74,4.0,6.3,53,0.00,,,-99.99,FreeWX 2.04,2013-05-25 04:35:00,
2013-05-24 23:40:00,55.2,38.3,30.27,East,91,5.0,7.4,53,0.00,,,-99.99,FreeWX 2.04,2013-05-25 04:40:00,
2013-05-24 23:45:00,55.2,37.9,30.27,East,100,6.0,7.4,52,0.00,,,-99.99,FreeWX 2.04,2013-05-25 04:45:00,
2013-05-24 23:50:00,55.2,38.3,30.27,ESE,106,6.0,6.9,53,0.00,,,-99.99,FreeWX 2.04,2013-05-25 04:50:00,
2013-05-24 23:55:00,55.2,38.3,30.27,ESE,108,5.0,6.9,53,0.00,,,-99.99,FreeWX 2.04,2013-05-25 04:55:00,